Location: Partizánske
(48.6285°N, 18.3769°E)
Time: 07:19:25
(UTC+02:00)

Courier 1B - All Passes

Search period start: 25 June 2022 00:00
Search period end: 05 July 2022 00:00
Orbit: 962 x 1209 km, 28.3° (Epoch: 24 June)

Date Brightness Start Highest point End Pass type
(mag) Time Alt. Az. Time Alt. Az. Time Alt. Az.
25 Jun - 09:16:54 10° SSW 09:19:08 12° S 09:21:24 10° SSE daylight
26 Jun - 08:23:48 10° SSW 08:25:44 11° S 08:27:42 10° SSE daylight
26 Jun - 10:18:01 10° SSW 10:18:18 10° S 10:18:34 10° S daylight
27 Jun - 07:31:06 10° S 07:32:21 11° S 07:33:37 10° SSE daylight
27 Jun - 09:23:20 10° SSW 09:24:54 11° S 09:26:28 10° S daylight
28 Jun - 08:29:34 10° SSW 08:31:30 11° S 08:33:26 10° SSE daylight
29 Jun - 07:36:06 10° SSW 07:38:06 11° S 07:40:07 10° SSE daylight
30 Jun - 06:42:53 10° SSW 06:44:43 11° S 06:46:33 10° SSE daylight
01 Jul - 05:50:00 10° S 05:51:19 11° S 05:52:39 10° SSE daylight
01 Jul - 07:42:20 10° SSW 07:43:52 11° S 07:45:24 10° S daylight
02 Jul - 06:48:25 10° SSW 06:50:29 12° S 06:52:32 10° SSE daylight
03 Jul - 05:54:48 10° SSW 05:57:05 12° S 05:59:20 10° SSE daylight
04 Jul - 05:01:24 10° SSW 05:03:40 12° S 05:05:54 10° SSE daylight
04 Jul - 06:55:18 10° SSW 06:56:13 10° S 06:57:09 10° S daylight
